• In Uzbekistan
  • List of Countries
  • For 7 days
  • Water Temperature
  • Satellite Maps
  • Weather Map
  • Weather Widgets
  • user-avatar
    Login

    Hourly Weather Zalom

    Today, 18 February, Monday

    Time Temperature Precipitation Wind Pressure Humidity
    00:00 +5°C° 0 mm 2 mps 766 mmHg 92%
    01:00 +5°C° 0 mm 2 mps 766 mmHg 91%
    02:00 +4°C° 0 mm 2 mps 766 mmHg 90%
    03:00 +3°C° 0 mm 3 mps 766 mmHg 90%
    04:00 +3°C° 0 mm 3 mps 765 mmHg 89%
    05:00 +3°C° 0 mm 3 mps 765 mmHg 88%
    06:00 +2°C° 0 mm 3 mps 765 mmHg 88%
    07:00 +3°C° 0 mm 2 mps 765 mmHg 86%
    08:00 +3°C° 0 mm 3 mps 764 mmHg 81%
    09:00 +4°C° 0 mm 3 mps 764 mmHg 76%
    10:00 +5°C° 0 mm 3 mps 764 mmHg 71%
    11:00 +8°C° 0 mm 3 mps 764 mmHg 68%
    12:00 +9°C° 0 mm 3 mps 764 mmHg 64%
    13:00 +11°C° 0 mm 3 mps 764 mmHg 60%
    14:00 +12°C° 0 mm 2 mps 763 mmHg 61%
    15:00 +12°C° 0 mm 2 mps 763 mmHg 63%
    16:00 +12°C° 0 mm 2 mps 763 mmHg 65%
    17:00 +9°C° 0 mm 2 mps 762 mmHg 70%
    18:00 +8°C° 0 mm 2 mps 762 mmHg 75%
    19:00 +7°C° 0 mm 2 mps 762 mmHg 80%
    20:00 +6°C° 0 mm 2 mps 762 mmHg 81%
    21:00 +6°C° 0 mm 2 mps 761 mmHg 82%
    22:00 +5°C° 0 mm 2 mps 761 mmHg 83%
    23:00 +4°C° 0 mm 3 mps 761 mmHg 84%

    Tomorrow, 19 February, Tuesday

    Time Temperature Precipitation Wind Pressure Humidity
    00:00 +4°C° 0 mm 3 mps 761 mmHg 85%
    01:00 +4°C° 0 mm 3 mps 760 mmHg 85%
    02:00 +3°C° 0 mm 3 mps 760 mmHg 86%
    03:00 +3°C° 0 mm 3 mps 759 mmHg 87%
    04:00 +3°C° 0 mm 4 mps 759 mmHg 88%
    05:00 +3°C° 0 mm 4 mps 759 mmHg 87%
    06:00 +3°C° 0 mm 4 mps 758 mmHg 87%
    07:00 +3°C° 0 mm 4 mps 758 mmHg 86%
    08:00 +3°C° 0 mm 5 mps 758 mmHg 84%
    09:00 +5°C° 0 mm 5 mps 758 mmHg 81%
    10:00 +5°C° 0 mm 6 mps 758 mmHg 79%
    11:00 +7°C° 0.1 mm 6 mps 758 mmHg 79%
    12:00 +7°C° 0.1 mm 6 mps 758 mmHg 79%
    13:00 +7°C° 0.1 mm 6 mps 759 mmHg 79%
    14:00 +7°C° 0.1 mm 6 mps 758 mmHg 78%
    15:00 +7°C° 0.1 mm 5 mps 758 mmHg 77%
    16:00 +7°C° 0.1 mm 5 mps 758 mmHg 76%
    17:00 +6°C° 0.1 mm 5 mps 759 mmHg 77%
    18:00 +6°C° 0.1 mm 5 mps 759 mmHg 79%
    19:00 +6°C° 0.1 mm 5 mps 760 mmHg 80%
    20:00 +6°C° 0.1 mm 5 mps 760 mmHg 80%
    21:00 +5°C° 0.1 mm 5 mps 760 mmHg 81%
    22:00 +5°C° 0.1 mm 5 mps 760 mmHg 81%
    23:00 +5°C° 0 mm 5 mps 760 mmHg 84%

    Day after tomorrow, 20 February, Wednesday

    Time Temperature Precipitation Wind Pressure Humidity
    00:00 +3°C° 0 mm 5 mps 760 mmHg 87%
    01:00 +2°C° 0 mm 5 mps 761 mmHg 89%
    02:00 +2°C° 0 mm 5 mps 761 mmHg 89%
    03:00 +2°C° 0 mm 5 mps 761 mmHg 89%
    04:00 +2°C° 0 mm 5 mps 761 mmHg 88%
    05:00 +2°C° 0 mm 5 mps 761 mmHg 88%
    06:00 +2°C° 0 mm 5 mps 762 mmHg 88%
    07:00 +2°C° 0 mm 5 mps 762 mmHg 89%
    08:00 +3°C° 0 mm 5 mps 762 mmHg 85%
    09:00 +5°C° 0 mm 5 mps 763 mmHg 81%
    10:00 +6°C° 0 mm 5 mps 763 mmHg 77%
    11:00 +6°C° 0 mm 5 mps 763 mmHg 73%
    12:00 +7°C° 0 mm 5 mps 764 mmHg 70%
    13:00 +8°C° 0 mm 5 mps 764 mmHg 67%
    14:00 +8°C° 0 mm 5 mps 764 mmHg 67%
    15:00 +8°C° 0 mm 4 mps 764 mmHg 68%
    16:00 +8°C° 0 mm 4 mps 764 mmHg 69%
    17:00 +8°C° 0 mm 3 mps 764 mmHg 73%
    18:00 +7°C° 0 mm 3 mps 764 mmHg 78%
    19:00 +7°C° 0 mm 3 mps 764 mmHg 82%
    20:00 +7°C° 0.2 mm 3 mps 764 mmHg 82%
    21:00 +6°C° 0.2 mm 4 mps 764 mmHg 81%
    22:00 +6°C° 0.2 mm 4 mps 764 mmHg 80%
    23:00 +6°C° 0.6 mm 5 mps 764 mmHg 82%

    21 February, Thursday

    Time Temperature Precipitation Wind Pressure Humidity
    00:00 +6°C° 0.6 mm 5 mps 764 mmHg 83%
    01:00 +6°C° 0.6 mm 5 mps 764 mmHg 84%
    02:00 +6°C° 0.8 mm 5 mps 764 mmHg 86%
    03:00 +6°C° 0.8 mm 5 mps 763 mmHg 87%
    04:00 +6°C° 0.8 mm 5 mps 763 mmHg 88%
    05:00 +6°C° 0.1 mm 5 mps 763 mmHg 89%
    06:00 +6°C° 0.1 mm 5 mps 764 mmHg 89%
    07:00 +6°C° 0.1 mm 5 mps 764 mmHg 89%
    08:00 +7°C° 0.1 mm 5 mps 764 mmHg 89%
    09:00 +7°C° 0.1 mm 5 mps 764 mmHg 89%
    10:00 +7°C° 0.1 mm 5 mps 765 mmHg 89%
    11:00 +7°C° 0.1 mm 5 mps 765 mmHg 88%
    12:00 +8°C° 0.1 mm 5 mps 765 mmHg 88%
    13:00 +8°C° 0.1 mm 5 mps 766 mmHg 87%
    14:00 +8°C° 0.1 mm 5 mps 766 mmHg 87%
    15:00 +8°C° 0.1 mm 5 mps 766 mmHg 87%
    16:00 +8°C° 0.1 mm 5 mps 766 mmHg 87%
    17:00 +7°C° 0 mm 4 mps 767 mmHg 88%
    18:00 +7°C° 0 mm 4 mps 767 mmHg 89%
    19:00 +8°C° 0 mm 3 mps 768 mmHg 90%
    20:00 +8°C° 0.1 mm 3 mps 769 mmHg 92%
    21:00 +8°C° 0.1 mm 3 mps 769 mmHg 93%
    22:00 +7°C° 0.1 mm 3 mps 770 mmHg 95%
    23:00 +7°C° 0 mm 3 mps 770 mmHg 95%

    22 February, Friday

    Time Temperature Precipitation Wind Pressure Humidity
    00:00 +7°C° 0 mm 3 mps 771 mmHg 96%
    01:00 +7°C° 0 mm 3 mps 771 mmHg 97%
    02:00 +7°C° 0 mm 2 mps 772 mmHg 97%
    03:00 +6°C° 0 mm 2 mps 772 mmHg 97%
    04:00 +6°C° 0 mm 2 mps 773 mmHg 97%
    05:00 +5°C° 0 mm 2 mps 773 mmHg 96%
    06:00 +5°C° 0 mm 2 mps 774 mmHg 96%
    07:00 +4°C° 0 mm 2 mps 775 mmHg 96%
    08:00 +5°C° 0 mm 2 mps 776 mmHg 91%
    09:00 +5°C° 0 mm 2 mps 776 mmHg 86%
    10:00 +6°C° 0 mm 2 mps 777 mmHg 81%
    11:00 +7°C° 0 mm 2 mps 777 mmHg 76%
    12:00 +8°C° 0 mm 2 mps 778 mmHg 72%
    13:00 +9°C° 0 mm 2 mps 778 mmHg 67%
    14:00 +9°C° 0 mm 2 mps 778 mmHg 67%
    15:00 +9°C° 0 mm 2 mps 778 mmHg 67%
    16:00 +10°C° 0 mm 1 mps 778 mmHg 67%
    17:00 +8°C° 0 mm 2 mps 779 mmHg 71%
    18:00 +7°C° 0 mm 2 mps 779 mmHg 75%
    19:00 +6°C° 0 mm 2 mps 779 mmHg 80%
    20:00 +5°C° 0 mm 2 mps 779 mmHg 81%
    21:00 +5°C° 0 mm 2 mps 780 mmHg 82%
    22:00 +5°C° 0 mm 2 mps 780 mmHg 83%
    23:00 +5°C° 0 mm 2 mps 780 mmHg 85%

    23 February, Saturday

    Time Temperature Precipitation Wind Pressure Humidity
    00:00 +4°C° 0 mm 3 mps 780 mmHg 87%
    01:00 +4°C° 0 mm 3 mps 780 mmHg 89%
    02:00 +5°C° 0 mm 2 mps 779 mmHg 91%
    03:00 +6°C° 0 mm 2 mps 779 mmHg 93%
    04:00 +6°C° 0 mm 2 mps 779 mmHg 94%
    05:00 +6°C° 0 mm 2 mps 779 mmHg 95%
    06:00 +5°C° 0 mm 3 mps 778 mmHg 96%
    07:00 +5°C° 0 mm 3 mps 778 mmHg 97%
    08:00 +7°C° 0 mm 3 mps 778 mmHg 93%
    09:00 +8°C° 0 mm 3 mps 778 mmHg 89%
    10:00 +8°C° 0 mm 3 mps 778 mmHg 85%
    11:00 +10°C° 0 mm 3 mps 778 mmHg 80%
    12:00 +11°C° 0 mm 3 mps 777 mmHg 75%
    13:00 +12°C° 0 mm 4 mps 777 mmHg 69%
    14:00 +12°C° 0 mm 3 mps 777 mmHg 70%
    15:00 +12°C° 0 mm 3 mps 777 mmHg 70%
    16:00 +12°C° 0 mm 3 mps 777 mmHg 70%
    17:00 +11°C° 0 mm 3 mps 776 mmHg 76%
    18:00 +10°C° 0 mm 3 mps 776 mmHg 82%
    19:00 +8°C° 0 mm 2 mps 776 mmHg 88%
    20:00 +8°C° 0 mm 2 mps 776 mmHg 89%
    21:00 +7°C° 0 mm 2 mps 776 mmHg 90%
    22:00 +7°C° 0 mm 2 mps 776 mmHg 91%
    23:00 +6°C° 0 mm 2 mps 776 mmHg 91%
    Show more